Weather in Nizhnepinigino

Russia / Tyumen Oblast     56°30′27″N   69°59′32″E
temp.,
°C
wind,
m/s
gust,
m/s
humid.,
%
clouds,
%
prec.,
mm/h
press.,
hPa
HPBL,
m
17 may, tue
tue1723:00+13s5128612 1.1 998331
02:00+11ssw615865 0.1 998398
05:00+11sw715760 0.1 998678
08:00+14sw914604 0.0 9971368
11:00+15wsw81358100 0.1 9981919
14:00+16w9135588 0.3 9991833
17:00+16w71360100 0.8 10011890
20:00+13wsw497554 0.1 1002324
18 may, wed
wed1823:00+10wsw4108983 0.2 1004225
02:00+9wsw37914 0.0 1005129
05:00+9sw34881 0.0 100681
08:00+15ssw465813 0.0 1007445
11:00+20ssw6741100 0.0 10062447
14:00+19ssw5740100 0.0 10052018
17:00+20sw473859 0.0 10042273
20:00+16ssw335468 0.0 100436
19 may, thu
thu1923:00+15s51054100 0.0 1003264
02:00+11s367383 0.1 100195
05:00+11sse3589100 0.6 1000181
08:00+15se446382 0.4 998537
11:00+15wsw7759100 1.5 9971405
14:00+12w91272100 0.7 999921
17:00+14w81463100 0.8 10011551
20:00+13w81467100 0.0 1003957
20 may, fri
fri2023:00+10wsw713721 0.0 1005740
02:00+7wsw7137566 0.0 1007601
05:00+6sw512765 0.0 1008343
08:00+11sw61158100 0.0 1008928
11:00+15sw81156100 0.4 10071751
14:00+16wsw61047100 0.4 10062096
17:00+12sw5774100 0.8 1005532
20:00+10s1192100 1.4 100456
21 may, sat
sat2123:00+9ne3598100 8.0 1001238
02:00+9ne4699100 10.9 998234
05:00+9nnw6898100 18.3 997335
08:00+9n4697100 1.4 997401
11:00+9nnw5693100 1.4 999503
14:00+9n5692100 0.0 999577
17:00+9nne4691100 0.1 998513
20:00+9nne5994100 0.8 996567